[[{"header":{"parameterUnit":"m.s-1","parameterCategory":1,"la1":30.2991,"la2":30.254,"lo1":-89.0895,"lo2":-89.0444,"dy":0.0017,"dx":0.0017,"nx":28,"ny":28,"refTime":"2023-08-30T21:00:00:Z","depth":0,"parameterNumber":2,"parameterNumberName":"U-component_of_WINDS"},"data":[0,0,0,0,0,0,0,0,0,0,0,0,0,0,0,0,0,0,0,0,0,0,0,0,0,0,0,0,0,0,0,0,0,0,0,0,0,0,0,0,0,0,0,0,0,0,0,0,0,0,0,0,0,0,0,0,0,0,1.6001,1.6001,0,1.5947,1.5947,1.5946,1.5873,1.5872,1.5871,1.587,1.5813,1.5813,1.5812,0,0,0,0,0,0,0,0,0,0,0,0,0,1.6041,1.6041,1.6001,1.6001,1.6,1.5948,1.5947,1.5946,1.5874,1.5872,1.5871,1.5869,1.5813,1.5813,1.5812,0,0,0,0,0,0,0,0,0,0,0,0,0,1.6009,1.6041,1.6002,1.5958,1.5953,1.5948,1.5947,1.5946,1.5874,1.5872,1.587,1.5869,1.5813,1.5813,1.5812,1.5845,0,0,1.581,1.581,0,0,0,0,0,0,0,0,1.6011,1.6008,1.5965,1.5961,1.5956,1.5915,1.594,1.5912,1.5874,1.5904,1.587,1.5868,1.5848,1.5845,1.5839,1.5842,1.584,1.581,1.581,1.581,1.581,0,0,0,0,0,0,0,1.6014,1.601,1.598,1.5964,1.5959,1.5941,1.5934,1.5934,1.5887,1.5901,1.5896,1.589,1.5845,1.5839,1.5837,1.5839,1.581,1.581,1.5809,1.5809,1.5869,1.5871,0,0,0,0,0,0,1.6023,1.6012,1.5982,1.5978,1.598,1.5941,1.5934,1.593,1.5887,1.5878,1.5892,1.5887,1.5841,1.5837,1.5834,1.5871,1.581,1.5809,1.5809,1.5867,1.5869,1.5871,0,0,0,0,0,0,1.6024,1.6021,1.5984,1.5994,1.5988,1.5943,1.5939,1.593,1.5924,1.588,1.5871,1.5895,1.584,1.5835,1.5843,1.5868,1.5809,1.5808,1.5865,1.5868,1.587,1.5945,0,0,0,0,0,0,1.6025,1.6021,1.6033,1.5995,1.5988,1.5994,1.594,1.593,1.5923,1.5916,1.588,1.5872,1.5838,1.5845,1.5843,1.5866,1.5808,1.5862,1.5866,1.5869,1.594,1.595,1.5959,0,0,0,0,0,1.6027,1.6056,1.6034,1.6031,1.6002,1.5996,1.5991,1.5952,1.5925,1.5937,1.5909,1.5873,1.5866,1.5846,1.5843,1.5867,1.586,1.5865,1.5869,1.5936,1.5948,1.5958,0,0,0,0,0,0,1.6097,1.605,1.6025,1.6043,1.6024,1.5983,1.5997,1.5966,1.5954,1.5948,1.5899,1.5891,1.5906,1.5887,1.5866,1.5898,1.5858,1.5862,1.591,1.5921,1.593,1.5934,1.5807,0,0,0,0,0,1.6115,1.6114,1.6073,1.6092,1.6084,1.6043,1.6038,1.601,1.5988,1.5979,1.5952,1.5932,1.5925,1.5922,1.5913,1.5937,1.5929,1.5952,1.5962,1.5969,1.5973,1.5986,1.5997,1.5886,1.5886,1.5886,0,0,1.6151,1.6125,1.6128,1.6106,1.6088,1.6088,1.6036,1.6038,1.6038,1.5979,1.5986,1.5966,1.594,1.5957,1.5963,1.5942,1.6003,1.5975,1.5981,1.5981,1.5992,1.6003,1.6012,1.5889,1.5888,1.5888,0,0,1.6218,1.6198,1.6213,1.6196,1.617,1.6143,1.6146,1.6111,1.6095,1.6101,1.6058,1.6057,1.6046,1.603,1.6021,1.6084,1.6051,1.6083,1.6131,1.6144,1.6153,1.6161,1.6184,1.6193,1.6087,1.6087,1.6087,0,1.6266,1.6266,1.6224,1.623,1.6222,1.617,1.6185,1.617,1.6143,1.6139,1.6115,1.6102,1.6081,1.6094,1.611,1.6104,1.6107,1.6087,1.6155,1.6162,1.6169,1.6191,1.62,1.6091,1.6091,1.609,1.609,0,1.6327,1.6328,1.6342,1.6319,1.6312,1.6322,1.6283,1.6281,1.6254,1.6229,1.6237,1.621,1.6196,1.6197,1.6169,1.6207,1.6195,1.6164,1.6123,1.6184,1.6204,1.6212,1.6097,1.6096,1.6094,1.6093,0,0,1.6436,1.639,1.6396,1.6385,1.6354,1.6353,1.6362,1.6349,1.6349,1.6332,1.6339,1.6332,1.6304,1.6294,1.6264,1.6276,1.6329,1.6244,1.6242,1.6262,1.6371,1.6395,1.6405,1.6307,1.6309,1.631,1.6373,0,1.6497,1.6509,1.6473,1.6494,1.6495,1.6446,1.6454,1.6436,1.6413,1.641,1.6385,1.6382,1.6344,1.6338,1.6347,1.6321,1.6351,1.6316,1.6313,1.6314,1.6322,1.6415,1.644,1.6501,1.6381,1.6382,1.6383,0,1.657,1.6558,1.6581,1.6549,1.6548,1.6556,1.6542,1.654,1.6518,1.6501,1.6491,1.6457,1.6464,1.6425,1.6434,1.6411,1.6408,1.6395,1.6396,1.6395,1.6352,1.6417,1.6519,1.6529,1.6394,1.6394,1.6393,0,1.6649,1.6638,1.6651,1.6643,1.6606,1.6613,1.6598,1.6575,1.657,1.6558,1.6555,1.6543,1.6537,1.653,1.6494,1.6469,1.6508,1.6466,1.6495,1.6496,1.6505,1.6505,1.6609,1.6502,1.6502,1.6502,1.6502,0,1.6721,1.6737,1.6686,1.6694,1.671,1.6668,1.6686,1.6666,1.6646,1.665,1.6606,1.661,1.6563,1.6562,1.6534,1.6547,1.6544,1.6531,1.6524,1.6535,1.6537,1.6533,1.6528,1.6504,1.6504,1.6503,1.6503,0,1.6812,1.6778,1.6789,1.6754,1.6746,1.676,1.673,1.6736,1.6711,1.6716,1.6715,1.6676,1.6673,1.6637,1.6625,1.6607,1.6631,1.6615,1.6639,1.6634,1.6665,1.6663,1.6771,1.6783,1.6668,1.6669,1.667,0,1.6861,1.6872,1.6839,1.6839,1.6826,1.6826,1.6821,1.6781,1.6778,1.6755,1.6765,1.6758,1.6751,1.6748,1.6719,1.6711,1.6695,1.6733,1.6693,1.6705,1.6697,1.6697,1.6698,1.6742,1.6743,1.6744,1.6745,0,1.6952,1.6935,1.693,1.6921,1.6917,1.6906,1.6894,1.6896,1.6851,1.685,1.6847,1.6842,1.6831,1.6826,1.6812,1.6797,1.6764,1.6758,1.6765,1.6777,1.6791,1.6785,1.6663,1.6756,1.6755,1.6754,1.6753,1.6753,1.7024,1.7032,1.7011,1.7008,1.6994,1.6984,1.6988,1.6965,1.6961,1.695,1.6926,1.6927,1.6907,1.6886,1.6874,1.6874,1.6854,1.6864,1.6866,1.6869,1.6876,1.6791,1.6871,1.6871,1.6871,1.687,1.687,0,1.7114,1.7098,1.7095,1.708,1.7077,1.7047,1.7032,1.7032,1.7034,1.7018,1.7012,1.701,1.7005,1.6976,1.6968,1.6974,1.6959,1.6973,1.6973,1.697,1.6893,1.6889,1.6986,1.6986,1.6986,1.6986,1.6986,1.6986,1.716,1.7174,1.7155,1.7161,1.7145,1.7146,1.714,1.7131,1.7118,1.7117,1.7113,1.7095,1.7074,1.7065,1.7059,1.7051,1.705,1.707,1.7057,1.6986,1.6975,1.6964,1.696,1.707,1.707,1.7133,1.7134,1.7135]},{"header":{"parameterUnit":"m.s-1","parameterCategory":1,"la1":30.2991,"la2":30.254,"lo1":-89.0895,"lo2":-89.0444,"dy":0.0017,"dx":0.0017,"nx":28,"ny":28,"refTime":"2023-08-30T21:00:00:Z","depth":0,"parameterNumber":3,"parameterNumberName":"V-component_of_WINDS"},"data":[0,0,0,0,0,0,0,0,0,0,0,0,0,0,0,0,0,0,0,0,0,0,0,0,0,0,0,0,0,0,0,0,0,0,0,0,0,0,0,0,0,0,0,0,0,0,0,0,0,0,0,0,0,0,0,0,0,0,-5.607,-5.6071,0,-5.6132,-5.6132,-5.6133,-5.6106,-5.6105,-5.6103,-5.6102,-5.6159,-5.6162,-5.6165,0,0,0,0,0,0,0,0,0,0,0,0,0,-5.5925,-5.5927,-5.607,-5.6071,-5.6071,-5.6132,-5.6132,-5.6133,-5.6106,-5.6105,-5.6103,-5.6101,-5.6158,-5.6161,-5.6165,0,0,0,0,0,0,0,0,0,0,0,0,0,-5.5987,-5.5928,-5.607,-5.6065,-5.6066,-5.6131,-5.6132,-5.6133,-5.6107,-5.6105,-5.6102,-5.61,-5.6157,-5.6161,-5.6165,-5.6237,0,0,-5.6179,-5.6181,0,0,0,0,0,0,0,0,-5.5984,-5.5992,-5.6065,-5.6066,-5.6066,-5.6109,-5.6102,-5.6168,-5.6107,-5.6091,-5.6102,-5.6099,-5.6144,-5.6149,-5.6165,-5.624,-5.6242,-5.6179,-5.6182,-5.6184,-5.6185,0,0,0,0,0,0,0,-5.5979,-5.599,-5.6094,-5.6066,-5.6067,-5.6059,-5.6066,-5.6114,-5.6129,-5.6092,-5.609,-5.6098,-5.6143,-5.6161,-5.6166,-5.6243,-5.6179,-5.6183,-5.6186,-5.6187,-5.6382,-5.6384,0,0,0,0,0,0,-5.5976,-5.5986,-5.6092,-5.6096,-5.6019,-5.6064,-5.6071,-5.6097,-5.6128,-5.6131,-5.61,-5.6097,-5.6155,-5.6161,-5.6168,-5.6256,-5.6184,-5.6188,-5.619,-5.6379,-5.6382,-5.6385,0,0,0,0,0,0,-5.5973,-5.5985,-5.609,-5.6041,-5.6053,-5.6069,-5.6099,-5.61,-5.6118,-5.6135,-5.6136,-5.6116,-5.6153,-5.6162,-5.6221,-5.6258,-5.619,-5.6194,-5.6376,-5.638,-5.6384,-5.6431,0,0,0,0,0,0,-5.5969,-5.5984,-5.6012,-5.6042,-5.6056,-5.6143,-5.6101,-5.6103,-5.6126,-5.6122,-5.615,-5.6152,-5.6152,-5.6215,-5.6226,-5.6262,-5.6197,-5.6373,-5.6378,-5.6383,-5.6426,-5.6436,-5.6444,0,0,0,0,0,-5.5963,-5.6021,-5.6014,-5.6027,-5.6092,-5.6145,-5.6153,-5.6154,-5.6129,-5.6157,-5.6168,-5.6151,-5.6252,-5.6221,-5.6233,-5.6272,-5.6371,-5.6377,-5.6382,-5.6422,-5.6434,-5.6444,0,0,0,0,0,0,-5.5993,-5.6025,-5.6017,-5.6086,-5.6114,-5.614,-5.6175,-5.6166,-5.6198,-5.6193,-5.6191,-5.6197,-5.6259,-5.6271,-5.6236,-5.6344,-5.6307,-5.6316,-5.6334,-5.6345,-5.6354,-5.635,-5.6201,0,0,0,0,0,-5.6008,-5.605,-5.6075,-5.6134,-5.6148,-5.616,-5.6183,-5.6181,-5.6208,-5.6219,-5.6234,-5.626,-5.6297,-5.6322,-5.6357,-5.6428,-5.6434,-5.6461,-5.647,-5.6477,-5.6484,-5.6525,-5.6537,-5.6404,-5.6404,-5.6404,0,0,-5.6038,-5.6061,-5.6087,-5.614,-5.6161,-5.6204,-5.6169,-5.6215,-5.6247,-5.6225,-5.6283,-5.6295,-5.6324,-5.639,-5.6419,-5.6401,-5.6523,-5.6484,-5.649,-5.6493,-5.6532,-5.6544,-5.6556,-5.6408,-5.6407,-5.6407,0,0,-5.6116,-5.6137,-5.619,-5.6213,-5.6246,-5.6254,-5.6267,-5.6296,-5.6304,-5.6363,-5.6349,-5.6385,-5.6449,-5.6471,-5.649,-5.658,-5.6566,-5.6592,-5.6639,-5.6678,-5.6689,-5.6698,-5.6731,-5.6743,-5.6599,-5.6599,-5.6599,0,-5.6149,-5.6215,-5.6217,-5.6266,-5.629,-5.6276,-5.6329,-5.635,-5.6392,-5.6409,-5.6389,-5.6472,-5.6489,-5.6561,-5.6584,-5.66,-5.6614,-5.6588,-5.6687,-5.6697,-5.6705,-5.6737,-5.6749,-5.6602,-5.6602,-5.6601,-5.6601,0,-5.6255,-5.63,-5.6339,-5.6384,-5.6412,-5.6462,-5.6472,-5.65,-5.6497,-5.6507,-5.6568,-5.6589,-5.663,-5.6647,-5.6643,-5.6719,-5.6707,-5.6687,-5.6651,-5.6721,-5.6751,-5.6763,-5.6606,-5.6605,-5.6604,-5.6604,0,0,-5.635,-5.6399,-5.6413,-5.6434,-5.6472,-5.6506,-5.6556,-5.6599,-5.6624,-5.6654,-5.6696,-5.6753,-5.6736,-5.6758,-5.6756,-5.6791,-5.6863,-5.6767,-5.6768,-5.6785,-5.695,-5.6965,-5.6979,-5.6855,-5.6857,-5.6859,-5.6948,0,-5.6431,-5.6522,-5.6528,-5.6609,-5.6652,-5.6641,-5.6685,-5.6712,-5.6724,-5.6761,-5.6772,-5.6813,-5.6787,-5.6801,-5.6835,-5.6847,-5.6896,-5.6841,-5.6893,-5.6895,-5.6887,-5.6995,-5.701,-5.7093,-5.696,-5.6962,-5.6963,0,-5.6538,-5.6575,-5.6662,-5.6697,-5.6715,-5.6754,-5.6795,-5.6831,-5.6862,-5.6868,-5.6895,-5.689,-5.6941,-5.6903,-5.6974,-5.6936,-5.6958,-5.6968,-5.6971,-5.6975,-5.6933,-5.7003,-5.712,-5.7133,-5.6981,-5.698,-5.6978,0,-5.6601,-5.6672,-5.6734,-5.6753,-5.6794,-5.6822,-5.684,-5.6869,-5.6896,-5.6931,-5.6948,-5.6988,-5.7009,-5.704,-5.7045,-5.7017,-5.7117,-5.7079,-5.7123,-5.7123,-5.7143,-5.7142,-5.7266,-5.7157,-5.7157,-5.7157,-5.7156,0,-5.6691,-5.6745,-5.6764,-5.6802,-5.6862,-5.6868,-5.6927,-5.6943,-5.697,-5.701,-5.7002,-5.7039,-5.7044,-5.7083,-5.7088,-5.7146,-5.7156,-5.7162,-5.7162,-5.7163,-5.7162,-5.7177,-5.7171,-5.716,-5.7159,-5.7159,-5.7158,0,-5.677,-5.6785,-5.6853,-5.6888,-5.6898,-5.6941,-5.697,-5.7006,-5.7018,-5.707,-5.7082,-5.71,-5.7145,-5.7155,-5.7207,-5.721,-5.7281,-5.7275,-5.7271,-5.7271,-5.7314,-5.7311,-5.7452,-5.7472,-5.7349,-5.7351,-5.7352,0,-5.6827,-5.6869,-5.691,-5.6938,-5.6959,-5.7003,-5.7031,-5.7039,-5.7068,-5.7109,-5.7141,-5.7186,-5.7223,-5.7297,-5.7313,-5.7354,-5.735,-5.7397,-5.7356,-5.7356,-5.7352,-5.735,-5.7354,-5.7405,-5.7406,-5.7407,-5.7408,0,-5.6927,-5.6933,-5.6975,-5.7021,-5.7056,-5.7091,-5.7124,-5.7147,-5.716,-5.7193,-5.7242,-5.7271,-5.7327,-5.7373,-5.7415,-5.7431,-5.7422,-5.7421,-5.7434,-5.7435,-5.7431,-5.7435,-5.7293,-5.7418,-5.7417,-5.7416,-5.7415,-5.7415,-5.6997,-5.7035,-5.7071,-5.7119,-5.7146,-5.7179,-5.7216,-5.7234,-5.7275,-5.7324,-5.7325,-5.7379,-5.741,-5.7466,-5.7486,-5.7527,-5.7512,-5.753,-5.7535,-5.7539,-5.7544,-5.7425,-5.7535,-5.7534,-5.7534,-5.7534,-5.7534,0,-5.7098,-5.7121,-5.7166,-5.7215,-5.7253,-5.7244,-5.7281,-5.7313,-5.7361,-5.7393,-5.7431,-5.7488,-5.7533,-5.7554,-5.7599,-5.7627,-5.7624,-5.7639,-5.7637,-5.7641,-5.7554,-5.7539,-5.7641,-5.7641,-5.7641,-5.7641,-5.7641,-5.7641,-5.7154,-5.7219,-5.723,-5.7308,-5.733,-5.7385,-5.7408,-5.7438,-5.7464,-5.7528,-5.7567,-5.7582,-5.761,-5.7657,-5.7698,-5.7703,-5.772,-5.7737,-5.774,-5.7658,-5.7647,-5.7637,-5.7623,-5.774,-5.774,-5.7824,-5.7824,-5.7825]}]]